Long Prairie, MN

7:12 AM CDT on May 25, 2018 (GMT -0500)
Long Prairie

Weather History for K14Y - November, 2013

Change the Weather History Date:

Thursday, November 21, 2013

  Actual Average (KLXL) Record (KLXL)
Temperature  
Mean Temperature 23 °F -  
Max Temperature 32 °F 35 °F 62 °F (2001)
Min Temperature 14 °F 18 °F -4 °F (1937)
Degree Days  
Heating Degree Days 42    
Moisture  
Dew Point 15 °F    
Average Humidity 77    
Maximum Humidity 100    
Minimum Humidity 59    
Precipitation  
Precipitation 0.00 in - - ()
Sea Level Pressure  
Sea Level Pressure 30.32 in    
Wind  
Wind Speed 11 mph (NW)    
Max Wind Speed 20 mph    
Max Gust Speed 25 mph    
Visibility 9 miles    
Events Snow    
Averages and records for this station are not official NWS values.
T = Trace of Precipitation, MM = Missing Value Source: NWS Daily Summary

Daily Weather History Graph

Daily Weather History Graph

Search for Another Location

Airport or City:

Astronomy

Nov. 21, 2013 Rise Set
Actual Time 7:28 AM CST 4:42 PM CST
Civil Twilight 6:55 AM CST 5:15 PM CST
Nautical Twilight 6:18 AM CST 5:51 PM CST
Astronomical Twilight 5:43 AM CST 6:27 PM CST
Moon 8:21 PM CST (11/21) 10:34 AM CST (11/21)
Length of Visible Light 10h 19m
Length of Day
9h 13m
Waning Gibbous, 85% of the Moon is Illuminated
Nov 21
Waning Gibbous
Nov 25
Last Quarter
Dec 2
New
Dec 9
First Quarter
Dec 17
Full

Hourly Weather History & Observations

Time (CST) Temp. Windchill Dew Point Humidity Pressure Visibility Wind Dir Wind Speed Gust Speed Precip Events Conditions
12:18 AM 32.0 °F - 30.2 °F 93% 30.02 in 7.0 mi Calm Calm - N/A   Overcast
12:39 AM 32.0 °F 28.7 °F 30.2 °F 93% 30.02 in 10.0 mi WSW 3.5 mph - N/A   Overcast
12:59 AM 32.0 °F 28.7 °F 30.2 °F 93% 30.02 in 10.0 mi WSW 3.5 mph - N/A   Overcast
1:19 AM 32.0 °F 22.5 °F 30.2 °F 93% 30.03 in 10.0 mi WNW 12.7 mph - N/A   Overcast
1:39 AM 32.0 °F 24.2 °F 28.4 °F 87% 30.04 in 7.0 mi WNW 9.2 mph - N/A   Overcast
1:59 AM 30.2 °F 20.8 °F 28.4 °F 93% 30.05 in 7.0 mi West 11.5 mph - N/A   Overcast
2:19 AM 28.4 °F 20.4 °F 26.6 °F 93% 30.06 in 7.0 mi WNW 8.1 mph - N/A   Overcast
2:38 AM 28.4 °F 17.5 °F 26.6 °F 93% 30.07 in 7.0 mi West 13.8 mph - N/A   Overcast
2:59 AM 26.6 °F 15.2 °F 26.6 °F 100% 30.09 in 7.0 mi WNW 13.8 mph 17.3 mph N/A   Overcast
3:19 AM 26.6 °F 15.7 °F 24.8 °F 93% 30.09 in 5.0 mi West 12.7 mph - N/A   Overcast
3:39 AM 24.8 °F 12.4 °F 23.0 °F 93% 30.10 in 5.0 mi WNW 15.0 mph 21.9 mph N/A   Overcast
3:59 AM 23.0 °F 10.1 °F 23.0 °F 100% 30.11 in 4.0 mi WNW 15.0 mph 20.7 mph N/A   Overcast
4:19 AM 23.0 °F 11.1 °F 21.2 °F 93% 30.12 in 7.0 mi WNW 12.7 mph 18.4 mph N/A   Overcast
4:39 AM 23.0 °F 10.1 °F 21.2 °F 93% 30.13 in 10.0 mi WNW 15.0 mph - N/A   Overcast
4:58 AM 21.2 °F 6.0 °F 21.2 °F 100% 30.14 in 5.0 mi WNW 19.6 mph 24.2 mph N/A   Overcast
5:19 AM 21.2 °F 7.3 °F 19.4 °F 93% 30.17 in 10.0 mi WNW 16.1 mph 23.0 mph N/A   Overcast
5:39 AM 21.2 °F 6.8 °F 17.6 °F 86% 30.18 in 10.0 mi NW 17.3 mph 20.7 mph N/A   Overcast
5:59 AM 19.4 °F 5.0 °F 15.8 °F 86% 30.18 in 10.0 mi NW 16.1 mph 23.0 mph N/A   Overcast
6:18 AM 19.4 °F 6.0 °F 15.8 °F 86% 30.20 in 10.0 mi NW 13.8 mph - N/A   Overcast
6:39 AM 19.4 °F 6.0 °F 15.8 °F 86% 30.20 in 10.0 mi NW 13.8 mph 19.6 mph N/A   Overcast
6:59 AM 21.2 °F 6.4 °F 15.8 °F 80% 30.22 in 10.0 mi WNW 18.4 mph 24.2 mph N/A   Overcast
7:19 AM 19.4 °F 6.0 °F 14.0 °F 80% 30.24 in 10.0 mi NW 13.8 mph 23.0 mph N/A   Overcast
7:39 AM 19.4 °F 6.0 °F 14.0 °F 80% 30.26 in 10.0 mi WNW 13.8 mph 21.9 mph N/A   Overcast
7:59 AM 19.4 °F 4.1 °F 14.0 °F 80% 30.27 in 10.0 mi NW 18.4 mph 23.0 mph N/A   Overcast
8:19 AM 21.2 °F 7.3 °F 14.0 °F 74% 30.27 in 10.0 mi NW 16.1 mph 23.0 mph N/A   Overcast
8:39 AM 21.2 °F 6.8 °F 14.0 °F 74% 30.28 in 10.0 mi NW 17.3 mph 23.0 mph N/A   Overcast
8:59 AM 19.4 °F 5.0 °F 14.0 °F 80% 30.29 in 10.0 mi NW 16.1 mph 21.9 mph N/A   Overcast
9:19 AM 19.4 °F 6.6 °F 14.0 °F 80% 30.30 in 10.0 mi NW 12.7 mph 24.2 mph N/A   Overcast
9:39 AM 19.4 °F 3.6 °F 14.0 °F 80% 30.31 in 5.0 mi WNW 19.6 mph 25.3 mph N/A Snow Light Snow
9:59 AM 19.4 °F 4.5 °F 14.0 °F 80% 30.32 in 4.0 mi NW 17.3 mph 25.3 mph N/A Snow Light Snow
10:19 AM 19.4 °F 5.5 °F 14.0 °F 80% 30.32 in 1.5 mi NW 15.0 mph 23.0 mph N/A Snow Light Snow
10:39 AM 19.4 °F 6.6 °F 15.8 °F 86% 30.32 in 1.2 mi NW 12.7 mph 21.9 mph N/A Snow Light Snow
10:59 AM 19.4 °F 6.6 °F 15.8 °F 86% 30.33 in 2.0 mi NW 12.7 mph 21.9 mph N/A Snow Light Snow
11:19 AM 19.4 °F 6.6 °F 15.8 °F 86% 30.33 in 3.0 mi NW 12.7 mph 20.7 mph N/A Snow Light Snow
11:39 AM 21.2 °F 7.8 °F 14.0 °F 74% 30.33 in 10.0 mi NNW 15.0 mph 21.9 mph N/A   Mostly Cloudy
11:59 AM 23.0 °F 13.1 °F 14.0 °F 68% 30.33 in 10.0 mi NNW 9.2 mph 23.0 mph N/A   Scattered Clouds
12:19 PM 21.2 °F 7.8 °F 14.0 °F 74% 30.34 in 10.0 mi NW 15.0 mph 23.0 mph N/A   Scattered Clouds
12:39 PM 23.0 °F 11.1 °F 14.0 °F 68% 30.36 in 10.0 mi NNW 12.7 mph 19.6 mph N/A   Mostly Cloudy
12:59 PM 23.0 °F 12.4 °F 14.0 °F 68% 30.36 in 10.0 mi NW 10.4 mph 20.7 mph N/A   Scattered Clouds
1:19 PM 23.0 °F 11.1 °F 14.0 °F 68% 30.36 in 10.0 mi NW 12.7 mph 18.4 mph N/A   Clear
1:39 PM 23.0 °F 11.7 °F 14.0 °F 68% 30.36 in 10.0 mi NW 11.5 mph - N/A   Clear
1:59 PM 23.0 °F 11.1 °F 14.0 °F 68% 30.37 in 10.0 mi NW 12.7 mph - N/A   Scattered Clouds
2:19 PM 23.0 °F 10.6 °F 12.2 °F 63% 30.37 in 10.0 mi NW 13.8 mph 20.7 mph N/A   Scattered Clouds
2:39 PM 23.0 °F 11.1 °F 12.2 °F 63% 30.38 in 10.0 mi NW 12.7 mph 21.9 mph N/A   Mostly Cloudy
2:59 PM 23.0 °F 10.1 °F 12.2 °F 63% 30.38 in 10.0 mi NW 15.0 mph 20.7 mph N/A   Overcast
3:20 PM 23.0 °F 11.1 °F 12.2 °F 63% 30.39 in 10.0 mi NW 12.7 mph - N/A   Overcast
3:39 PM 23.0 °F 11.1 °F 12.2 °F 63% 30.40 in 10.0 mi NW 12.7 mph 20.7 mph N/A   Overcast
3:59 PM 23.0 °F 10.1 °F 10.4 °F 59% 30.41 in 10.0 mi NW 15.0 mph 20.7 mph N/A   Mostly Cloudy
4:20 PM 23.0 °F 12.4 °F 12.2 °F 63% 30.42 in 10.0 mi NW 10.4 mph 19.6 mph N/A   Mostly Cloudy
4:39 PM 21.2 °F 10.9 °F 10.4 °F 63% 30.43 in 10.0 mi NW 9.2 mph 17.3 mph N/A   Overcast
4:59 PM 21.2 °F 8.9 °F 10.4 °F 63% 30.44 in 10.0 mi NW 12.7 mph - N/A   Overcast
5:19 PM 21.2 °F 8.9 °F 10.4 °F 63% 30.44 in 10.0 mi NW 12.7 mph - N/A   Overcast
5:39 PM 21.2 °F 8.9 °F 10.4 °F 63% 30.45 in 10.0 mi NW 12.7 mph 21.9 mph N/A   Mostly Cloudy
5:59 PM 21.2 °F 8.9 °F 10.4 °F 63% 30.45 in 10.0 mi NW 12.7 mph 16.1 mph N/A   Overcast
6:19 PM 19.4 °F 7.2 °F 10.4 °F 68% 30.46 in 10.0 mi NW 11.5 mph - N/A   Mostly Cloudy
6:39 PM 19.4 °F 6.6 °F 8.6 °F 63% 30.47 in 10.0 mi NW 12.7 mph 19.6 mph N/A   Mostly Cloudy
6:58 PM 19.4 °F 6.6 °F 10.4 °F 68% 30.48 in 10.0 mi NW 12.7 mph - N/A   Mostly Cloudy
7:19 PM 17.6 °F 3.2 °F 10.4 °F 73% 30.49 in 10.0 mi NW 15.0 mph 19.6 mph N/A   Scattered Clouds
7:39 PM 17.6 °F 3.7 °F 8.6 °F 68% 30.49 in 10.0 mi NW 13.8 mph - N/A   Scattered Clouds
7:59 PM 17.6 °F 5.7 °F 8.6 °F 68% 30.50 in 10.0 mi NW 10.4 mph - N/A   Mostly Cloudy
8:19 PM 17.6 °F 3.7 °F 8.6 °F 68% 30.51 in 10.0 mi NW 13.8 mph 17.3 mph N/A   Scattered Clouds
8:39 PM 17.6 °F 4.3 °F 8.6 °F 68% 30.51 in 10.0 mi NW 12.7 mph - N/A   Mostly Cloudy
9:00 PM 17.6 °F 3.2 °F 8.6 °F 68% 30.51 in 10.0 mi WNW 15.0 mph 18.4 mph N/A   Overcast
9:19 PM 15.8 °F 2.1 °F 8.6 °F 73% 30.52 in 10.0 mi NW 12.7 mph - N/A   Mostly Cloudy
9:39 PM 15.8 °F 3.4 °F 8.6 °F 73% 30.52 in 10.0 mi WNW 10.4 mph 18.4 mph N/A   Scattered Clouds
9:59 PM 15.8 °F 2.1 °F 8.6 °F 73% 30.53 in 10.0 mi NW 12.7 mph - N/A   Scattered Clouds
10:19 PM 15.8 °F 3.4 °F 8.6 °F 73% 30.53 in 10.0 mi NW 10.4 mph - N/A   Scattered Clouds
10:39 PM 14.0 °F -0.2 °F 8.6 °F 79% 30.54 in 10.0 mi WNW 12.7 mph - N/A   Clear
10:58 PM 14.0 °F 3.9 °F 8.6 °F 79% 30.54 in 10.0 mi NW 6.9 mph 10.4 mph N/A   Clear
11:19 PM 14.0 °F 2.9 °F 8.6 °F 79% 30.54 in 10.0 mi WNW 8.1 mph - N/A   Clear
11:39 PM 14.0 °F 2.9 °F 6.8 °F 73% 30.53 in 10.0 mi WNW 8.1 mph - N/A   Clear
11:59 PM 14.0 °F 3.9 °F 6.8 °F 73% 30.54 in 10.0 mi WNW 6.9 mph - N/A   Clear